Time,TemperatureF,DewpointF,PressureIn,WindDirection,WindDirectionDegrees,WindSpeedMPH,WindSpeedGustMPH,Humidity,HourlyPrecipIn,Conditions,Clouds,dailyrainin,SolarRadiationWatts/m^2,SoftwareType,DateUTC
2013-02-14 00:00:00,27.8,24.4,29.71,NW,321,0.0,0.0,87,0.00,,,0.00,0,Wunderground v.1.15,2013-02-14 05:00:00,
2013-02-14 00:05:00,27.8,24.4,29.71,NW,321,0.0,0.0,87,0.00,,,0.00,0,Wunderground v.1.15,2013-02-14 05:05:00,
2013-02-14 00:10:00,27.8,24.4,29.69,NW,321,0.0,0.0,87,0.00,,,0.00,0,Wunderground v.1.15,2013-02-14 05:10:00,
2013-02-14 00:20:00,28.2,24.8,29.68,NW,321,0.0,1.0,87,0.00,,,0.00,0,Wunderground v.1.15,2013-02-14 05:20:00,
2013-02-14 00:25:00,28.4,24.5,29.71,NW,321,0.0,1.0,85,0.00,,,0.00,0,Wunderground v.1.15,2013-02-14 05:25:00,
2013-02-14 00:35:00,28.7,24.2,29.71,NW,321,0.0,0.0,83,0.00,,,0.00,0,Wunderground v.1.15,2013-02-14 05:35:00,
2013-02-14 00:45:00,28.7,24.2,29.72,NW,321,0.0,0.0,83,0.00,,,0.00,0,Wunderground v.1.15,2013-02-14 05:45:00,
2013-02-14 00:55:00,28.3,24.1,29.72,NW,321,0.0,0.0,84,0.00,,,0.00,0,Wunderground v.1.15,2013-02-14 05:55:00,
2013-02-14 01:00:00,28.2,24.3,29.73,NW,321,0.0,0.0,85,0.00,,,0.00,0,Wunderground v.1.15,2013-02-14 06:00:00,
2013-02-14 01:10:00,28.1,23.9,29.73,NW,321,0.0,0.0,84,0.00,,,0.00,0,Wunderground v.1.15,2013-02-14 06:10:00,
2013-02-14 01:20:00,28.1,24.5,29.73,NW,321,0.0,0.0,86,0.00,,,0.00,0,Wunderground v.1.15,2013-02-14 06:20:00,
2013-02-14 01:25:00,28.1,24.5,29.72,NW,321,0.0,0.0,86,0.00,,,0.00,0,Wunderground v.1.15,2013-02-14 06:25:00,
2013-02-14 01:35:00,28.0,24.4,29.72,NW,321,0.0,0.0,86,0.00,,,0.00,0,Wunderground v.1.15,2013-02-14 06:35:00,
2013-02-14 01:45:00,28.1,24.7,29.72,NW,321,0.0,0.0,87,0.00,,,0.00,0,Wunderground v.1.15,2013-02-14 06:45:00,
2013-02-14 01:55:00,28.0,24.4,29.72,NW,321,0.0,0.0,86,0.00,,,0.00,0,Wunderground v.1.15,2013-02-14 06:55:00,
2013-02-14 02:00:00,28.0,24.4,29.71,NW,321,0.0,0.0,86,0.00,,,0.00,0,Wunderground v.1.15,2013-02-14 07:00:00,
2013-02-14 02:10:00,28.0,24.1,29.71,NW,321,0.0,0.0,85,0.00,,,0.00,0,Wunderground v.1.15,2013-02-14 07:10:00,
2013-02-14 02:20:00,28.2,24.0,29.71,NW,321,0.0,0.0,84,0.00,,,0.00,0,Wunderground v.1.15,2013-02-14 07:20:00,
2013-02-14 02:30:00,28.5,23.7,29.71,NW,322,0.0,0.0,82,0.00,,,0.00,0,Wunderground v.1.15,2013-02-14 07:30:00,
2013-02-14 02:40:00,28.7,23.3,29.72,NW,322,0.0,0.0,80,0.00,,,0.00,0,Wunderground v.1.15,2013-02-14 07:40:00,
2013-02-14 02:50:00,28.6,22.9,29.72,NW,322,0.0,0.0,79,0.00,,,0.00,0,Wunderground v.1.15,2013-02-14 07:50:00,
2013-02-14 03:00:00,28.3,22.6,29.73,NW,322,0.0,0.0,79,0.00,,,0.00,0,Wunderground v.1.15,2013-02-14 08:00:00,
2013-02-14 03:10:00,28.1,22.4,29.73,NW,322,0.0,0.0,79,0.00,,,0.00,0,Wunderground v.1.15,2013-02-14 08:10:00,
2013-02-14 03:20:00,28.0,22.6,29.73,NW,322,0.0,0.0,80,0.00,,,0.00,0,Wunderground v.1.15,2013-02-14 08:20:00,
2013-02-14 03:30:00,27.6,22.5,29.73,NW,322,0.0,0.0,81,0.00,,,0.00,0,Wunderground v.1.15,2013-02-14 08:30:00,
2013-02-14 03:40:00,27.6,22.2,29.73,NW,322,0.0,0.0,80,0.00,,,0.00,0,Wunderground v.1.15,2013-02-14 08:40:00,
2013-02-14 03:50:00,28.3,22.6,29.74,NNW,331,1.0,1.0,79,0.00,,,0.00,0,Wunderground v.1.15,2013-02-14 08:50:00,
2013-02-14 03:55:00,28.2,22.5,29.75,NNW,331,0.0,1.0,79,0.00,,,0.00,0,Wunderground v.1.15,2013-02-14 08:55:00,
2013-02-14 04:00:00,28.2,22.2,29.74,NNW,331,0.0,0.0,78,0.00,,,0.00,0,Wunderground v.1.15,2013-02-14 09:00:00,
2013-02-14 04:10:00,27.7,22.3,29.75,NNW,331,0.0,0.0,80,0.00,,,0.00,0,Wunderground v.1.15,2013-02-14 09:10:00,
2013-02-14 04:20:00,28.0,22.6,29.76,NNW,331,0.0,0.0,80,0.00,,,0.00,0,Wunderground v.1.15,2013-02-14 09:20:00,
2013-02-14 04:30:00,28.4,22.7,29.76,NW,321,1.0,1.0,79,0.00,,,0.00,0,Wunderground v.1.15,2013-02-14 09:30:00,
2013-02-14 04:40:00,28.5,22.2,29.76,North,5,1.0,2.0,77,0.00,,,0.00,0,Wunderground v.1.15,2013-02-14 09:40:00,
2013-02-14 04:45:00,28.6,22.0,29.76,NNW,329,2.0,2.0,76,0.00,,,0.00,0,Wunderground v.1.15,2013-02-14 09:45:00,
2013-02-14 04:55:00,28.6,21.7,29.76,NW,324,2.0,3.0,75,0.00,,,0.00,0,Wunderground v.1.15,2013-02-14 09:55:00,
2013-02-14 05:00:00,28.1,21.5,29.76,NW,324,1.0,2.0,76,0.00,,,0.00,0,Wunderground v.1.15,2013-02-14 10:00:00,
2013-02-14 05:10:00,27.2,20.9,29.76,NW,324,0.0,0.0,77,0.00,,,0.00,0,Wunderground v.1.15,2013-02-14 10:10:00,
2013-02-14 05:15:00,26.7,20.8,29.76,NW,324,0.0,0.0,78,0.00,,,0.00,0,Wunderground v.1.15,2013-02-14 10:15:00,
2013-02-14 05:25:00,25.5,20.2,29.76,NW,324,0.0,0.0,80,0.00,,,0.00,0,Wunderground v.1.15,2013-02-14 10:25:00,
2013-02-14 05:35:00,24.6,19.9,29.76,NE,36,0.0,0.0,82,0.00,,,0.00,0,Wunderground v.1.15,2013-02-14 10:35:00,
2013-02-14 05:45:00,23.7,19.6,29.77,NE,36,0.0,0.0,84,0.00,,,0.00,0,Wunderground v.1.15,2013-02-14 10:45:00,
2013-02-14 05:55:00,23.1,19.3,29.78,NE,36,0.0,0.0,85,0.00,,,0.00,0,Wunderground v.1.15,2013-02-14 10:55:00,
2013-02-14 06:00:00,23.0,19.2,29.77,NE,36,0.0,0.0,85,0.00,,,0.00,0,Wunderground v.1.15,2013-02-14 11:00:00,
2013-02-14 06:10:00,22.5,18.7,29.78,NE,36,0.0,0.0,85,0.00,,,0.00,0,Wunderground v.1.15,2013-02-14 11:10:00,
2013-02-14 06:20:00,21.9,18.4,29.78,NE,36,0.0,0.0,86,0.00,,,0.00,0,Wunderground v.1.15,2013-02-14 11:20:00,
2013-02-14 06:25:00,21.8,18.5,29.78,NE,36,0.0,0.0,87,0.00,,,0.00,0,Wunderground v.1.15,2013-02-14 11:25:00,
2013-02-14 06:30:00,22.2,18.9,29.78,NE,36,0.0,0.0,87,0.00,,,0.00,0,Wunderground v.1.15,2013-02-14 11:30:00,
2013-02-14 06:40:00,21.7,18.4,29.79,NE,36,0.0,0.0,87,0.00,,,0.00,0,Wunderground v.1.15,2013-02-14 11:40:00,
2013-02-14 06:45:00,21.3,17.8,29.79,NE,36,0.0,0.0,86,0.00,,,0.00,0,Wunderground v.1.15,2013-02-14 11:45:00,
2013-02-14 06:55:00,19.9,16.7,29.79,NE,36,0.0,0.0,87,0.00,,,0.00,9,Wunderground v.1.15,2013-02-14 11:55:00,
2013-02-14 07:00:00,19.7,16.7,29.79,NE,36,0.0,0.0,88,0.00,,,0.00,11,Wunderground v.1.15,2013-02-14 12:00:00,
2013-02-14 07:10:00,19.7,17.0,29.81,NE,36,0.0,0.0,89,0.00,,,0.00,18,Wunderground v.1.15,2013-02-14 12:10:00,
2013-02-14 07:20:00,19.7,17.0,29.81,NE,36,0.0,0.0,89,0.00,,,0.00,25,Wunderground v.1.15,2013-02-14 12:20:00,
2013-02-14 07:25:00,20.2,17.7,29.81,NE,36,0.0,0.0,90,0.00,,,0.00,40,Wunderground v.1.15,2013-02-14 12:25:00,
2013-02-14 07:35:00,21.2,18.5,29.82,NE,36,0.0,0.0,89,0.00,,,0.00,49,Wunderground v.1.15,2013-02-14 12:35:00,
2013-02-14 07:45:00,21.9,19.2,29.83,NE,36,0.0,0.0,89,0.00,,,0.00,76,Wunderground v.1.15,2013-02-14 12:45:00,
2013-02-14 07:55:00,23.6,20.3,29.83,NE,36,0.0,0.0,87,0.00,,,0.00,86,Wunderground v.1.15,2013-02-14 12:55:00,
2013-02-14 08:00:00,25.0,21.1,29.83,NE,36,0.0,0.0,85,0.00,,,0.00,76,Wunderground v.1.15,2013-02-14 13:00:00,
2013-02-14 08:10:00,25.2,20.8,29.83,NNW,336,0.0,4.0,83,0.00,,,0.00,223,Wunderground v.1.15,2013-02-14 13:10:00,
2013-02-14 08:20:00,28.6,22.0,29.84,NNW,340,2.0,2.0,76,0.00,,,0.00,128,Wunderground v.1.15,2013-02-14 13:20:00,
2013-02-14 08:25:00,29.1,21.5,29.84,NW,321,3.0,3.0,73,0.00,,,0.00,69,Wunderground v.1.15,2013-02-14 13:25:00,
2013-02-14 08:35:00,30.0,21.7,29.84,North,355,3.0,5.0,71,0.00,,,0.00,60,Wunderground v.1.15,2013-02-14 13:35:00,
2013-02-14 08:45:00,30.6,21.3,29.85,NNW,330,4.0,4.0,68,0.00,,,0.00,76,Wunderground v.1.15,2013-02-14 13:45:00,
2013-02-14 08:50:00,31.1,21.8,29.85,WNW,300,4.0,5.0,68,0.00,,,0.00,128,Wunderground v.1.15,2013-02-14 13:50:00,
2013-02-14 09:00:00,32.1,22.0,29.85,NNW,328,4.0,4.0,66,0.00,,,0.00,137,Wunderground v.1.15,2013-02-14 14:00:00,
2013-02-14 09:10:00,32.9,22.0,29.86,NNW,340,3.0,3.0,64,0.00,,,0.00,113,Wunderground v.1.15,2013-02-14 14:10:00,
2013-02-14 09:20:00,33.7,22.4,29.86,NNW,339,1.0,2.0,63,0.00,,,0.00,100,Wunderground v.1.15,2013-02-14 14:20:00,
2013-02-14 09:25:00,34.4,22.3,29.86,NW,310,1.0,3.0,61,0.00,,,0.00,130,Wunderground v.1.15,2013-02-14 14:25:00,
2013-02-14 09:35:00,35.0,22.9,29.86,NW,324,1.0,1.0,61,0.00,,,0.00,489,Wunderground v.1.15,2013-02-14 14:35:00,
2013-02-14 09:45:00,36.7,22.9,29.87,NNW,333,4.0,6.0,57,0.00,,,0.00,371,Wunderground v.1.15,2013-02-14 14:45:00,
2013-02-14 09:55:00,37.2,22.9,29.87,NW,325,3.0,4.0,56,0.00,,,0.00,527,Wunderground v.1.15,2013-02-14 14:55:00,
2013-02-14 10:00:00,37.7,23.4,29.87,NNW,339,3.0,6.0,56,0.00,,,0.00,322,Wunderground v.1.15,2013-02-14 15:00:00,
2013-02-14 10:10:00,37.5,22.8,29.87,NW,308,4.0,4.0,55,0.00,,,0.00,362,Wunderground v.1.15,2013-02-14 15:10:00,
2013-02-14 10:20:00,37.5,22.8,29.87,NW,311,5.0,5.0,55,0.00,,,0.00,338,Wunderground v.1.15,2013-02-14 15:20:00,
2013-02-14 10:30:00,37.9,22.7,29.87,West,280,6.0,7.0,54,0.00,,,0.00,320,Wunderground v.1.15,2013-02-14 15:30:00,
2013-02-14 10:40:00,38.1,22.5,29.87,NW,326,6.0,11.0,53,0.00,,,0.00,322,Wunderground v.1.15,2013-02-14 15:40:00,
2013-02-14 10:50:00,38.4,22.3,29.88,North,5,7.0,7.0,52,0.00,,,0.00,670,Wunderground v.1.15,2013-02-14 15:50:00,
2013-02-14 10:55:00,38.8,22.2,29.88,North,355,7.0,7.0,51,0.00,,,0.00,745,Wunderground v.1.15,2013-02-14 15:55:00,
2013-02-14 11:00:00,38.9,22.8,29.88,NW,325,7.0,7.0,52,0.00,,,0.00,573,Wunderground v.1.15,2013-02-14 16:00:00,
2013-02-14 11:10:00,38.4,22.3,29.88,NNW,327,8.0,8.0,52,0.00,,,0.00,640,Wunderground v.1.15,2013-02-14 16:10:00,
2013-02-14 11:15:00,38.9,22.8,29.88,WNW,302,6.0,8.0,52,0.00,,,0.00,619,Wunderground v.1.15,2013-02-14 16:15:00,
2013-02-14 11:25:00,39.3,23.1,29.88,North,355,4.0,7.0,52,0.00,,,0.00,671,Wunderground v.1.15,2013-02-14 16:25:00,
2013-02-14 11:35:00,39.6,22.5,29.88,North,360,4.0,10.0,50,0.00,,,0.00,689,Wunderground v.1.15,2013-02-14 16:35:00,
2013-02-14 11:45:00,39.3,22.7,29.88,NNW,333,6.0,6.0,51,0.00,,,0.00,629,Wunderground v.1.15,2013-02-14 16:45:00,
2013-02-14 11:55:00,39.9,22.7,29.87,NW,304,4.0,6.0,50,0.00,,,0.00,636,Wunderground v.1.15,2013-02-14 16:55:00,
2013-02-14 12:00:00,39.8,23.1,29.87,WNW,284,2.0,2.0,51,0.00,,,0.00,635,Wunderground v.1.15,2013-02-14 17:00:00,
2013-02-14 12:10:00,40.6,23.4,29.87,NW,324,3.0,5.0,50,0.00,,,0.00,622,Wunderground v.1.15,2013-02-14 17:10:00,
2013-02-14 12:20:00,40.9,23.7,29.86,NNW,343,6.0,6.0,50,0.00,,,0.00,615,Wunderground v.1.15,2013-02-14 17:20:00,
2013-02-14 12:25:00,41.0,23.3,29.87,WNW,302,5.0,6.0,49,0.00,,,0.00,606,Wunderground v.1.15,2013-02-14 17:25:00,
2013-02-14 12:35:00,40.9,23.2,29.86,North,355,4.0,7.0,49,0.00,,,0.00,603,Wunderground v.1.15,2013-02-14 17:35:00,
2013-02-14 12:45:00,40.7,24.4,29.86,North,360,4.0,5.0,52,0.00,,,0.00,601,Wunderground v.1.15,2013-02-14 17:45:00,
2013-02-14 12:55:00,40.9,23.7,29.86,ENE,65,3.0,4.0,50,0.00,,,0.00,589,Wunderground v.1.15,2013-02-14 17:55:00,
2013-02-14 13:00:00,41.5,23.7,29.86,NNW,338,2.0,4.0,49,0.00,,,0.00,589,Wunderground v.1.15,2013-02-14 18:00:00,
2013-02-14 13:10:00,41.5,23.7,29.86,WNW,298,2.0,5.0,49,0.00,,,0.00,577,Wunderground v.1.15,2013-02-14 18:10:00,
2013-02-14 13:15:00,41.3,24.0,29.86,North,9,3.0,5.0,50,0.00,,,0.00,571,Wunderground v.1.15,2013-02-14 18:15:00,
2013-02-14 13:25:00,41.4,24.1,29.86,WNW,297,3.0,4.0,50,0.00,,,0.00,559,Wunderground v.1.15,2013-02-14 18:25:00,
2013-02-14 13:35:00,41.9,24.1,29.86,NW,307,4.0,4.0,49,0.00,,,0.00,545,Wunderground v.1.15,2013-02-14 18:35:00,
2013-02-14 13:45:00,41.4,23.6,29.86,NW,311,2.0,6.0,49,0.00,,,0.00,527,Wunderground v.1.15,2013-02-14 18:45:00,
2013-02-14 13:55:00,41.4,23.6,29.86,South,179,1.0,3.0,49,0.00,,,0.00,510,Wunderground v.1.15,2013-02-14 18:55:00,
2013-02-14 14:00:00,41.5,23.7,29.86,NNW,331,1.0,3.0,49,0.00,,,0.00,487,Wunderground v.1.15,2013-02-14 19:00:00,
2013-02-14 14:10:00,41.5,24.2,29.86,WNW,295,2.0,5.0,50,0.00,,,0.00,91,Wunderground v.1.15,2013-02-14 19:10:00,
2013-02-14 14:20:00,41.4,23.6,29.86,South,188,2.0,2.0,49,0.00,,,0.00,81,Wunderground v.1.15,2013-02-14 19:20:00,
2013-02-14 14:30:00,41.8,23.5,29.86,ESE,107,1.0,2.0,48,0.00,,,0.00,429,Wunderground v.1.15,2013-02-14 19:30:00,
2013-02-14 14:40:00,41.8,24.5,29.86,SSE,155,2.0,3.0,50,0.00,,,0.00,62,Wunderground v.1.15,2013-02-14 19:40:00,
2013-02-14 14:50:00,41.8,24.0,29.86,NNW,348,3.0,4.0,49,0.00,,,0.00,54,Wunderground v.1.15,2013-02-14 19:50:00,
2013-02-14 14:55:00,42.0,23.2,29.86,North,355,2.0,4.0,47,0.00,,,0.00,54,Wunderground v.1.15,2013-02-14 19:55:00,
2013-02-14 15:00:00,42.0,24.7,29.87,NNW,333,2.0,3.0,50,0.00,,,0.00,54,Wunderground v.1.15,2013-02-14 20:00:00,
2013-02-14 15:10:00,41.8,24.5,29.88,SSW,208,2.0,2.0,50,0.00,,,0.00,49,Wunderground v.1.15,2013-02-14 20:10:00,
2013-02-14 15:20:00,42.1,23.3,29.88,South,188,0.0,2.0,47,0.00,,,0.00,49,Wunderground v.1.15,2013-02-14 20:20:00,
2013-02-14 15:25:00,42.1,23.8,29.88,South,179,1.0,2.0,48,0.00,,,0.00,58,Wunderground v.1.15,2013-02-14 20:25:00,
2013-02-14 15:35:00,42.1,23.8,29.88,West,279,2.0,3.0,48,0.00,,,0.00,44,Wunderground v.1.15,2013-02-14 20:35:00,
2013-02-14 15:45:00,42.3,23.5,29.88,South,181,1.0,1.0,47,0.00,,,0.00,46,Wunderground v.1.15,2013-02-14 20:45:00,
2013-02-14 15:55:00,42.0,23.7,29.88,SSE,168,1.0,2.0,48,0.00,,,0.00,40,Wunderground v.1.15,2013-02-14 20:55:00,
2013-02-14 16:00:00,41.5,23.7,29.88,SSW,193,0.0,0.0,49,0.00,,,0.00,39,Wunderground v.1.15,2013-02-14 21:00:00,
2013-02-14 16:09:00,41.7,23.9,29.88,North,355,1.0,1.0,49,0.00,,,0.00,35,Wunderground v.1.15,2013-02-14 21:09:00,
2013-02-14 16:15:00,42.0,23.2,29.88,North,355,1.0,1.0,47,0.00,,,0.00,33,Wunderground v.1.15,2013-02-14 21:15:00,
2013-02-14 16:25:00,41.3,24.0,29.89,South,176,0.0,0.0,50,0.00,,,0.00,32,Wunderground v.1.15,2013-02-14 21:25:00,
2013-02-14 16:35:00,38.9,24.9,29.89,South,176,0.0,0.0,57,0.00,,,0.00,28,Wunderground v.1.15,2013-02-14 21:35:00,
2013-02-14 16:45:00,37.4,25.6,29.89,South,176,0.0,0.0,62,0.00,,,0.00,21,Wunderground v.1.15,2013-02-14 21:45:00,
2013-02-14 16:55:00,35.9,24.5,29.89,South,176,0.0,0.0,63,0.00,,,0.00,16,Wunderground v.1.15,2013-02-14 21:55:00,
2013-02-14 17:00:00,35.1,25.6,29.90,South,176,0.0,0.0,68,0.00,,,0.00,12,Wunderground v.1.15,2013-02-14 22:00:00,
2013-02-14 17:10:00,33.8,25.7,29.91,South,176,0.0,0.0,72,0.00,,,0.00,5,Wunderground v.1.15,2013-02-14 22:10:00,
2013-02-14 17:19:00,33.0,25.9,29.91,South,176,0.0,0.0,75,0.00,,,0.00,0,Wunderground v.1.15,2013-02-14 22:19:00,
2013-02-14 17:25:00,32.6,25.9,29.91,South,176,0.0,0.0,76,0.00,,,0.00,0,Wunderground v.1.15,2013-02-14 22:25:00,
2013-02-14 17:35:00,31.3,25.5,29.92,South,176,0.0,0.0,79,0.00,,,0.00,0,Wunderground v.1.15,2013-02-14 22:35:00,
2013-02-14 17:45:00,30.4,25.6,29.92,South,176,0.0,0.0,82,0.00,,,0.00,0,Wunderground v.1.15,2013-02-14 22:45:00,
2013-02-14 17:50:00,30.1,25.6,29.92,South,176,0.0,0.0,83,0.00,,,0.00,0,Wunderground v.1.15,2013-02-14 22:50:00,
2013-02-14 18:00:00,29.7,25.5,29.92,South,176,0.0,0.0,84,0.00,,,0.00,0,Wunderground v.1.15,2013-02-14 23:00:00,
2013-02-14 18:10:00,29.7,25.7,29.93,South,176,0.0,0.0,85,0.00,,,0.00,0,Wunderground v.1.15,2013-02-14 23:10:00,
2013-02-14 18:15:00,29.7,24.9,29.93,South,176,0.0,0.0,82,0.00,,,0.00,0,Wunderground v.1.15,2013-02-14 23:15:00,
2013-02-14 18:25:00,28.9,24.7,29.93,South,176,0.0,0.0,84,0.00,,,0.00,0,Wunderground v.1.15,2013-02-14 23:25:00,
2013-02-14 18:35:00,28.5,24.8,29.94,South,176,0.0,0.0,86,0.00,,,0.00,0,Wunderground v.1.15,2013-02-14 23:35:00,
2013-02-14 18:45:00,28.0,24.4,29.94,South,176,0.0,0.0,86,0.00,,,0.00,0,Wunderground v.1.15,2013-02-14 23:45:00,
2013-02-14 18:55:00,27.8,24.4,29.94,South,176,0.0,0.0,87,0.00,,,0.00,0,Wunderground v.1.15,2013-02-14 23:55:00,
2013-02-14 19:00:00,27.7,24.3,29.94,South,176,0.0,0.0,87,0.00,,,0.00,0,Wunderground v.1.15,2013-02-15 00:00:00,
2013-02-14 19:10:00,27.6,24.2,29.94,South,176,0.0,0.0,87,0.00,,,0.00,0,Wunderground v.1.15,2013-02-15 00:10:00,
2013-02-14 19:20:00,27.5,24.4,29.94,South,176,0.0,0.0,88,0.00,,,0.00,0,Wunderground v.1.15,2013-02-15 00:20:00,
2013-02-14 19:30:00,27.4,24.0,29.94,South,176,0.0,0.0,87,0.00,,,0.00,0,Wunderground v.1.15,2013-02-15 00:30:00,
2013-02-14 19:35:00,27.3,23.9,29.95,South,176,0.0,0.0,87,0.00,,,0.00,0,Wunderground v.1.15,2013-02-15 00:35:00,
2013-02-14 19:40:00,27.2,23.8,29.95,South,176,0.0,0.0,87,0.00,,,0.00,0,Wunderground v.1.15,2013-02-15 00:40:00,
2013-02-14 19:50:00,26.9,23.8,29.95,South,176,0.0,0.0,88,0.00,,,0.00,0,Wunderground v.1.15,2013-02-15 00:50:00,
2013-02-14 19:55:00,26.7,23.6,29.95,South,176,0.0,0.0,88,0.00,,,0.00,0,Wunderground v.1.15,2013-02-15 00:55:00,
2013-02-14 20:00:00,26.7,23.9,29.95,South,176,0.0,0.0,89,0.00,,,0.00,0,Wunderground v.1.15,2013-02-15 01:00:00,
2013-02-14 20:10:00,26.7,23.9,29.95,South,176,0.0,0.0,89,0.00,,,0.00,0,Wunderground v.1.15,2013-02-15 01:10:00,
2013-02-14 20:15:00,26.7,23.9,29.95,South,176,0.0,0.0,89,0.00,,,0.00,0,Wunderground v.1.15,2013-02-15 01:15:00,
2013-02-14 20:24:00,26.0,22.9,29.95,South,176,0.0,0.0,88,0.00,,,0.00,0,Wunderground v.1.15,2013-02-15 01:24:00,
2013-02-14 20:30:00,25.8,22.7,29.95,South,176,0.0,0.0,88,0.00,,,0.00,0,Wunderground v.1.15,2013-02-15 01:30:00,
2013-02-14 20:40:00,25.8,23.0,29.95,South,176,0.0,0.0,89,0.00,,,0.00,0,Wunderground v.1.15,2013-02-15 01:40:00,
2013-02-14 20:45:00,25.3,22.5,29.95,South,176,0.0,0.0,89,0.00,,,0.00,0,Wunderground v.1.15,2013-02-15 01:45:00,
2013-02-14 20:55:00,25.0,22.2,29.95,South,176,0.0,0.0,89,0.00,,,0.00,0,Wunderground v.1.15,2013-02-15 01:55:00,
2013-02-14 21:00:00,24.7,21.9,29.95,South,176,0.0,0.0,89,0.00,,,0.00,0,Wunderground v.1.15,2013-02-15 02:00:00,
2013-02-14 21:10:00,24.4,21.6,29.95,South,176,0.0,0.0,89,0.00,,,0.00,0,Wunderground v.1.15,2013-02-15 02:10:00,
2013-02-14 21:20:00,24.3,21.8,29.95,South,176,0.0,0.0,90,0.00,,,0.00,0,Wunderground v.1.15,2013-02-15 02:20:00,
2013-02-14 21:30:00,23.7,21.2,29.95,South,176,0.0,0.0,90,0.00,,,0.00,0,Wunderground v.1.15,2013-02-15 02:30:00,
2013-02-14 21:40:00,23.3,20.8,29.95,South,176,0.0,0.0,90,0.00,,,0.00,0,Wunderground v.1.15,2013-02-15 02:40:00,
2013-02-14 21:45:00,23.1,20.6,29.94,South,176,0.0,0.0,90,0.00,,,0.00,0,Wunderground v.1.15,2013-02-15 02:45:00,
2013-02-14 21:55:00,22.8,20.6,29.95,South,176,0.0,0.0,91,0.00,,,0.00,0,Wunderground v.1.15,2013-02-15 02:55:00,
2013-02-14 22:00:00,22.5,20.3,29.95,South,176,0.0,0.0,91,0.00,,,0.00,0,Wunderground v.1.15,2013-02-15 03:00:00,
2013-02-14 22:09:00,22.3,20.1,29.95,South,176,0.0,0.0,91,0.00,,,0.00,0,Wunderground v.1.15,2013-02-15 03:09:00,
2013-02-14 22:15:00,22.1,19.9,29.95,South,176,0.0,0.0,91,0.00,,,0.00,0,Wunderground v.1.15,2013-02-15 03:15:00,
2013-02-14 22:25:00,21.8,19.6,29.95,South,176,0.0,0.0,91,0.00,,,0.00,0,Wunderground v.1.15,2013-02-15 03:25:00,
2013-02-14 22:35:00,22.1,20.1,29.95,South,176,0.0,0.0,92,0.00,,,0.00,0,Wunderground v.1.15,2013-02-15 03:35:00,
2013-02-14 22:40:00,22.1,20.1,29.95,South,176,0.0,0.0,92,0.00,,,0.00,0,Wunderground v.1.15,2013-02-15 03:40:00,
2013-02-14 22:50:00,22.0,20.0,29.96,South,176,0.0,0.0,92,0.00,,,0.00,0,Wunderground v.1.15,2013-02-15 03:50:00,
2013-02-14 23:00:00,22.4,20.4,29.96,South,176,0.0,0.0,92,0.00,,,0.00,0,Wunderground v.1.15,2013-02-15 04:00:00,
2013-02-14 23:10:00,22.7,20.7,29.96,South,176,0.0,0.0,92,0.00,,,0.00,0,Wunderground v.1.15,2013-02-15 04:10:00,
2013-02-14 23:20:00,22.8,20.8,29.96,South,176,0.0,0.0,92,0.00,,,0.00,0,Wunderground v.1.15,2013-02-15 04:20:00,
2013-02-14 23:30:00,22.9,20.9,29.96,South,176,0.0,0.0,92,0.00,,,0.00,0,Wunderground v.1.15,2013-02-15 04:30:00,
2013-02-14 23:40:00,22.9,20.9,29.96,South,176,0.0,0.0,92,0.00,,,0.00,0,Wunderground v.1.15,2013-02-15 04:40:00,
2013-02-14 23:45:00,22.9,20.9,29.96,South,176,0.0,0.0,92,0.00,,,0.00,0,Wunderground v.1.15,2013-02-15 04:45:00,
2013-02-14 23:55:00,22.7,20.7,29.95,South,176,0.0,0.0,92,0.00,,,0.00,0,Wunderground v.1.15,2013-02-15 04:55:00,